Location: Bu�n Treun
(12.1333°N, 108.3167°E)
Time: 00:34:44
(UTC+00:00)

Cosmos 1680 Rocket - Pass Details

Date: 13 July 2020
Orbit: 760 x 781 km, 74.1° (Epoch: 03 August)

Event Time Altitude Azimuth Distance (km) Brightness Sun altitude
Exits shadow 13:21:41 71° 359° (N) 822 3.6 -28.2°
Drops below altitude 10° 13:26:24 10° 11° (NNE) 2,327 6.2 -29.1°
Sets 13:28:47 0° 12° (NNE) 3,256 7.0 -29.6°
